Location: Byszew
(52.1813°N, 19.2693°E)
Time: 04:44:01
(UTC+00:00)

Envisat - Pass Details

Date: 02 February 2022
Orbit: 764 x 765 km, 98.2° (Epoch: 25 May)

Event Time Altitude Azimuth Distance (km) Brightness Sun altitude
Rises 04:53:52 0° 8° (N) 3,246 6.2 -13.6°
Reaches altitude 10° 04:56:23 10° 359° (N) 2,315 5.4 -13.2°
Maximum altitude 05:00:50 32° 298° (WNW) 1,309 3.7 -12.6°
Drops below altitude 10° 05:05:17 10° 237° (WSW) 2,303 5.1 -11.9°
Sets 05:07:47 0° 228° (SW) 3,225 5.9 -11.5°
